Location: Unspecified
(50.7693°N, 0.0000°E)
Time: 16:13:44
(UTC+00:00)

deb Explorer IX - Pass Details

Date: 24 June 2019
Orbit: 540 x 1111 km, 38.8° (Epoch: 20 August)

Event Time Altitude Azimuth Distance (km) Brightness Sun altitude
Rises 14:18:56 0° 240° (WSW) 3,815 ? 52.0°
Reaches altitude 10° 14:21:55 10° 231° (SW) 2,913 ? 51.6°
Maximum altitude 14:28:03 31° 173° (S) 1,846 ? 50.8°
Drops below altitude 10° 14:34:16 10° 115° (ESE) 2,955 ? 49.9°
Sets 14:37:19 0° 105° (ESE) 3,879 ? 49.5°
